Weather History for Pine Bluff, AR

Change the Weather History Date:

Thursday, May 8, 2014

  Actual Average Record
Temperature  
Mean Temperature 73 °F 69 °F  
Max Temperature 79 °F 80 °F 94 °F (1896)
Min Temperature 67 °F 59 °F 42 °F (1917)
Degree Days  
Heating Degree Days 0 1  
Month to date heating degree days 15 9  
Since 1 July heating degree days 3422 2873  
Cooling Degree Days 8 5  
Month to date cooling degree days 35 36  
Year to date cooling degree days 89 123  
Growing Degree Days 24 (Base 50)    
Moisture  
Dew Point 65 °F    
Average Humidity 71    
Maximum Humidity 84    
Minimum Humidity 58    
Precipitation  
Precipitation 0.48 in 0.17 in 1.42 in (1907)
Month to date precipitation 0.48 1.41  
Year to date precipitation 15.60 19.56  
Snow  
Snow 0.00 in 0.00 in - ()
Month to date snowfall 0.0 0.0  
Since 1 July snowfall 3.7 3.1  
Snow Depth 0.00 in    
Sea Level Pressure  
Sea Level Pressure 29.95 in    
Wind  
Wind Speed 10 mph (SSE)    
Max Wind Speed 23 mph    
Max Gust Speed 30 mph    
Visibility 10 miles    
Events Rain    
T = Trace of Precipitation, MM = Missing Value Source: NWS Daily Summary

Daily Weather History Graph

Daily Weather History Graph

Search for Another Location

Airport:

Trip Planner

Search our weather history database for the weather conditions in past years. The results will help you decide how hot, cold, wet, or windy it might be!

Date:

Astronomy

May. 08, 2014 Rise Set
Actual Time 6:11 AM CDT 7:57 PM CDT
Civil Twilight 5:44 AM CDT 8:24 PM CDT
Nautical Twilight 5:11 AM CDT 8:57 PM CDT
Astronomical Twilight 4:36 AM CDT 9:32 PM CDT
Moon 2:14 PM CDT (5/8) 2:26 AM CDT (5/8)
Length of Visible Light 14h 40m
Length of Day
13h 45m
Waxing Gibbous, 65% of the Moon is Illuminated
May 8
Waxing Gibbous
May 14
Full
May 21
Last Quarter
May 28
New
Jun 5
First Quarter

Hourly Weather History & Observations

Time (CDT) Temp. Dew Point Humidity Pressure Visibility Wind Dir Wind Speed Gust Speed Precip Events Conditions
12:53 AM 68.0 °F 61.0 °F 78% 29.93 in 10.0 mi SSE 5.8 mph - N/A   Clear
1:53 AM 68.0 °F 61.0 °F 78% 29.94 in 10.0 mi South 5.8 mph - N/A   Clear
2:53 AM 70.0 °F 63.0 °F 78% 29.95 in 10.0 mi South 9.2 mph - N/A   Partly Cloudy
3:53 AM 70.0 °F 63.0 °F 78% 29.96 in 10.0 mi South 9.2 mph - N/A   Mostly Cloudy
4:53 AM 69.1 °F 63.0 °F 81% 29.96 in 10.0 mi South 9.2 mph - N/A   Clear
5:53 AM 69.1 °F 64.0 °F 84% 29.98 in 10.0 mi South 8.1 mph - N/A   Mostly Cloudy
6:53 AM 70.0 °F 64.0 °F 81% 30.00 in 10.0 mi SSE 8.1 mph - N/A   Scattered Clouds
7:53 AM 73.0 °F 64.9 °F 76% 30.01 in 10.0 mi South 15.0 mph 20.7 mph N/A   Scattered Clouds
8:53 AM 73.0 °F 66.0 °F 79% 30.01 in 10.0 mi SSE 15.0 mph 23.0 mph N/A   Clear
9:53 AM 75.0 °F 66.0 °F 73% 29.99 in 10.0 mi South 17.3 mph 23.0 mph N/A   Clear
10:53 AM 78.1 °F 66.0 °F 66% 29.98 in 10.0 mi South 18.4 mph - N/A   Scattered Clouds
11:53 AM 78.1 °F 64.0 °F 62% 29.97 in 10.0 mi South 16.1 mph 25.3 mph N/A   Mostly Cloudy
12:53 PM 77.0 °F 63.0 °F 62% 29.95 in 10.0 mi SSE 13.8 mph 23.0 mph N/A   Clear
1:53 PM 78.1 °F 63.0 °F 60% 29.96 in 10.0 mi SSE 11.5 mph 17.3 mph N/A   Mostly Cloudy
2:53 PM 79.0 °F 64.0 °F 60% 29.94 in 10.0 mi South 9.2 mph - N/A   Mostly Cloudy
3:53 PM 78.1 °F 64.9 °F 64% 29.94 in 10.0 mi South 10.4 mph - N/A   Overcast
4:53 PM 78.1 °F 64.9 °F 64% 29.94 in 10.0 mi South 8.1 mph - N/A   Mostly Cloudy
5:53 PM 77.0 °F 66.9 °F 71% 29.94 in 10.0 mi South 5.8 mph - N/A   Mostly Cloudy
6:53 PM 75.0 °F 68.0 °F 79% 29.92 in 10.0 mi SE 4.6 mph - N/A   Scattered Clouds
7:53 PM 73.0 °F 68.0 °F 84% 29.93 in 10.0 mi South 9.2 mph - 0.05 in Rain Light Rain
8:53 PM 71.1 °F 66.9 °F 87% 29.92 in 10.0 mi SSE 6.9 mph - 0.01 in Rain Light Rain
9:53 PM 70.0 °F 66.9 °F 90% 29.91 in 10.0 mi SSE 9.2 mph - 0.01 in   Mostly Cloudy
10:53 PM 71.1 °F 66.0 °F 84% 29.90 in 10.0 mi SE 6.9 mph - 0.00 in Rain Light Rain
11:53 PM 70.0 °F 66.0 °F 87% 29.90 in 10.0 mi SW 6.9 mph - 0.00 in   Overcast